STARLINK-34878 (65334 NORAD) Tracking and Keplerian Element Data

This shows tracking and keplerian element data for the satellite.

Feedback or suggestion? Click here.




ElementValue
Catalog65334
NameSTARLINK-34878
Epoch Orbit1891
Epoch Day354.03608004
Epoch Year2025
RAAN216.5798
Inclination53.1575
Eccentricity0.0001276
Argument of Perigee73.89
Mean Anonmoly286.2242
Mean Motion15.30206635
Decay Rate0.00016946
L11 65334U 25189M 25354.03608004 .00016946 00000+0 58284-3 0 9991
L22 65334 53.1575 216.5798 0001276 73.8900 286.2242 15.30206635 18916



Live tracking and technical data element details for STARLINK-34878 (NORAD 65334). STARLINK-34878 can be tracked NOW for your location showing map with azimuth and elevation plus other details from your city location.







IsCatalogInMostPopularTable: catalog: 65334, numindb: 7
Update: records affected: 1



GetName: 65334 STARLINK-34878

Hit Count: updated at: Mon, 20 Apr 2026 10:21:46 GMT